Theta_e
355 362 365 362 359 356 356 357 358 359 360 360 361 361 361 361 361 361 359 359 359 358 355 354 353 353 352 350 350 353 355 355 354 353 353 355 356 357 356 353 352 347 351
350 361 364 363 360 356 357 356 358 359 359 360 360 360 360 360 360 359 357 357 357 355 353 353 351 350 350 352 353 353 353 353 352 353 355 355 353 355 358 359 356 351 351
346 353 363 363 360 357 357 358 358 359 359 359 359 360 360 359 358 357 357 355 354 353 352 351 350 350 352 352 352 351 352 354 354 354 354 345 343 352 358 359 359 357 358
343 357 361 363 362 359 358 358 358 359 359 359 359 359 359 359 358 356 356 354 353 352 352 351 352 352 352 351 351 352 352 353 353 354 344 340 337 345 353 363 360 359 359
349 359 360 363 361 359 358 358 358 358 359 359 359 358 357 357 357 357 357 356 353 352 352 353 353 352 351 351 352 354 353 353 353 350 341 336 334 339 351 361 358 357 358
354 358 360 362 360 360 359 358 358 358 359 358 358 357 357 356 357 357 356 356 354 353 353 353 352 351 351 352 354 354 354 352 351 342 339 338 334 340 349 359 356 355 354
356 357 360 361 360 360 359 358 358 358 359 359 359 358 357 356 356 356 355 355 355 355 354 353 351 352 353 354 353 354 353 351 343 339 337 336 332 345 359 357 353 354 355
355 356 358 360 359 359 359 358 357 358 359 359 359 357 357 356 356 355 356 356 357 356 355 354 354 355 353 352 353 353 353 351 346 340 340 337 342 354 356 356 355 353 352
356 356 356 356 357 359 358 357 357 357 358 357 357 356 356 356 356 356 357 358 357 357 356 354 354 352 352 352 352 351 352 353 348 343 342 339 350 356 353 353 351 350 350
353 354 354 354 354 353 354 358 358 358 358 357 357 356 355 356 356 356 355 357 357 356 355 353 353 352 352 350 351 352 354 355 343 340 338 347 355 352 351 351 350 347 346
350 351 352 352 352 351 352 354 357 357 357 356 355 355 353 348 350 351 353 354 356 355 353 352 352 352 351 351 350 353 353 346 342 345 350 355 352 353 350 346 344 343 339
345 347 350 350 350 350 350 350 349 351 350 348 347 347 345 343 343 348 350 353 353 353 353 351 350 352 350 340 342 347 343 341 345 350 348 352 351 345 340 340 340 339 336
344 346 347 349 349 347 346 347 346 344 345 344 343 342 339 339 338 340 337 337 340 345 340 337 338 343 342 342 342 341 343 344 348 345 349 347 343 340 338 340 337 335 333
342 344 346 348 347 343 346 346 344 343 340 338 339 339 335 333 333 334 335 335 337 334 331 336 342 345 343 342 341 339 340 345 345 345 338 343 341 341 339 336 334 333 333
341 344 345 346 345 343 343 342 341 337 336 335 335 337 335 332 334 335 333 334 333 333 332 342 344 341 341 339 339 340 340 344 344 342 330 338 342 339 335 334 333 332 332
342 343 345 345 343 343 340 338 338 334 334 334 334 336 335 333 335 335 332 330 331 337 342 343 339 337 336 337 338 341 343 342 341 336 331 331 340 337 334 332 331 330 330
339 342 342 342 340 340 337 336 335 333 333 332 335 338 338 336 336 334 331 333 340 342 340 337 336 336 337 337 335 337 340 340 339 336 331 327 328 336 333 330 328 328 328
336 337 339 342 337 336 334 333 332 331 333 334 338 338 340 340 336 337 342 341 342 339 337 337 336 335 334 330 330 330 327 325 323 322 322 320 318 321 327 329 327 326 325
334 334 335 335 334 332 329 330 330 332 336 337 339 339 340 340 339 344 342 339 339 338 338 337 334 334 322 321 326 322 320 317 316 318 316 317 318 316 316 325 326 324 323
333 333 333 332 330 328 331 331 333 334 337 340 341 341 341 347 347 342 340 339 338 334 331 333 319 317 318 318 320 317 315 314 313 312 313 316 315 314 314 314 312 314 322
333 333 332 330 328 329 334 334 335 334 339 342 344 346 347 346 343 341 339 335 330 325 322 327 321 313 313 314 314 313 311 311 311 310 311 313 313 314 314 312 312 312 312
333 336 333 331 331 330 336 338 337 340 340 342 342 342 342 341 338 338 334 328 324 320 319 318 317 314 311 311 311 307 303 305 310 310 309 311 310 312 313 314 312 311 310
334 337 336 334 338 336 340 341 340 340 338 337 336 334 334 335 333 332 326 323 320 318 316 314 314 311 308 309 308 305 300 298 303 306 308 307 307 309 309 311 311 311 311
334 336 337 337 340 342 341 340 339 337 334 333 330 327 326 328 326 325 322 320 317 316 314 313 313 309 308 307 308 309 306 305 300 299 305 306 306 308 307 308 309 310 311
334 330 331 337 338 343 340 341 339 335 333 329 325 322 321 322 322 322 319 317 315 314 313 313 312 311 308 307 306 305 304 304 303 300 298 303 306 306 308 307 308 309 310
328 328 331 334 334 335 338 341 337 333 328 324 321 319 319 319 319 319 318 315 314 313 313 313 312 311 309 308 306 305 304 302 302 302 300 299 300 304 306 307 307 308 309
Wind_Speed
8 8 10 8 10 13 16 17 17 17 17 17 16 17 17 15 15 15 15 14 13 13 11 10 9 8 8 7 6 4 5 5 4 3 3 4 4 5 6 7 7 5 8
19 8 12 11 12 13 16 17 18 17 16 17 16 17 16 15 15 14 13 13 13 12 11 10 9 8 7 5 3 2 3 4 4 6 9 10 11 9 7 10 10 5 7
11 10 13 15 15 15 15 16 16 17 17 16 16 16 15 14 14 14 12 11 11 11 10 9 8 6 5 2 1 3 6 8 8 9 11 5 6 12 11 11 10 8 9
15 16 14 18 18 17 17 17 15 15 17 16 15 15 15 13 13 13 11 11 10 9 8 7 6 4 2 1 4 7 9 10 11 10 5 6 8 13 15 10 8 7 9
22 18 17 21 21 20 18 19 17 15 15 16 15 14 15 14 12 10 10 9 10 9 8 6 4 1 2 4 7 9 10 11 11 9 5 5 6 10 15 4 3 5 9
13 21 21 24 21 21 19 19 18 19 16 16 16 15 15 14 12 10 9 8 8 8 6 4 1 1 5 7 8 8 10 10 11 4 5 6 6 12 16 3 6 9 11
16 15 19 24 23 22 21 20 19 18 17 16 15 16 14 13 11 10 9 8 7 6 4 2 1 3 6 8 9 9 11 12 7 5 4 4 5 9 7 9 9 10 12
13 16 18 21 22 22 21 20 19 18 16 15 14 14 14 13 12 11 10 9 7 5 3 2 3 5 7 10 10 11 12 12 8 4 5 4 8 10 12 11 11 13 13
13 15 14 14 17 22 20 20 19 17 16 15 14 14 13 13 12 10 9 7 6 5 3 4 6 7 8 10 11 12 13 13 7 3 5 4 9 16 17 14 15 15 16
12 15 15 13 12 11 12 18 18 17 16 14 14 13 13 12 11 9 8 6 5 5 5 5 8 8 8 9 11 13 13 7 3 4 4 6 16 17 17 15 16 14 16
9 12 15 15 12 10 8 12 15 17 16 15 13 13 9 4 5 7 5 6 6 6 4 7 9 9 8 7 8 10 7 4 5 5 6 15 14 17 18 15 14 13 16
17 14 15 16 14 12 9 8 6 7 5 5 5 6 4 4 4 3 4 5 6 5 4 7 9 9 6 3 3 7 3 5 6 7 6 12 19 17 15 13 14 15 15
17 14 17 16 13 12 10 5 3 3 4 4 5 5 4 3 2 2 1 1 2 3 2 4 4 3 5 3 4 4 3 6 5 5 11 17 15 15 14 15 14 14 13
21 18 19 18 14 12 7 7 6 5 3 3 4 5 4 3 3 3 2 1 2 1 2 2 1 4 5 6 5 2 5 6 5 4 9 14 13 15 16 14 14 14 13
19 19 19 18 14 9 9 7 6 4 4 4 4 4 3 3 3 2 1 2 2 2 1 2 3 2 4 5 4 6 7 8 8 5 3 15 14 16 15 14 13 14 14
16 18 16 15 13 11 9 8 6 5 5 4 4 5 5 3 2 3 1 2 2 3 2 3 3 3 4 4 6 8 8 7 7 6 4 6 13 14 13 13 14 15 15
20 17 16 15 11 11 10 8 6 6 5 4 4 6 6 5 3 4 3 3 3 3 4 3 3 4 5 4 6 5 5 5 5 6 5 5 5 12 11 13 14 15 16
10 18 15 14 12 11 8 7 5 5 5 5 5 4 6 5 5 5 4 3 3 4 2 3 4 4 3 4 4 4 4 4 5 6 5 4 4 4 7 13 14 15 15
9 11 14 13 14 11 8 6 6 7 5 5 4 5 6 6 6 6 4 4 4 4 3 4 4 3 4 4 7 5 5 5 5 5 6 6 5 4 3 11 12 13 14
7 9 11 10 12 11 7 6 4 4 4 4 4 4 6 5 8 7 5 5 3 3 4 4 5 5 3 5 8 7 5 5 4 5 4 3 4 4 4 5 3 5 14
8 11 9 10 11 10 8 7 4 4 4 4 4 7 6 6 6 8 5 5 3 4 3 3 3 5 5 3 5 6 4 5 6 5 4 4 4 4 4 2 2 3 4
16 14 11 9 9 7 7 4 4 5 4 4 6 7 6 8 6 6 7 5 5 5 5 4 4 3 3 4 3 3 2 4 4 5 4 3 5 3 3 3 4 5 4
15 14 13 11 10 8 8 8 8 8 6 5 5 6 5 7 6 7 6 5 6 4 4 3 3 6 4 4 4 4 2 3 0 3 4 4 4 3 3 4 5 5 6
13 9 13 13 8 7 11 10 15 10 10 3 4 5 6 5 7 7 6 6 6 4 5 3 2 4 4 4 3 5 5 3 3 1 3 2 3 3 4 3 5 5 6
19 16 11 11 10 9 1 12 11 10 9 8 7 9 7 5 6 7 7 7 6 4 5 6 6 6 2 4 3 2 5 4 4 3 1 4 3 2 2 4 4 4 6
15 9 11 11 7 13 9 6 14 17 14 11 9 8 5 4 4 6 7 6 5 6 6 5 5 7 6 6 4 4 3 2 0 3 2 2 2 3 1 3 4 4 5
Wind_Direction
148 154 168 183 145 133 132 130 124 123 119 116 116 114 114 117 116 117 119 119 119 121 125 123 124 123 120 119 119 117 103 87 67 27 338 327 302 265 242 248 250 261 209
124 155 165 176 161 151 141 138 131 129 125 124 124 121 121 122 119 118 121 125 126 129 132 132 136 135 132 130 120 78 53 45 18 358 343 338 324 304 271 248 250 255 239
138 161 166 174 168 159 149 142 138 136 134 130 129 125 124 121 120 121 125 127 132 135 139 141 143 142 134 120 55 351 359 3 359 354 345 338 313 300 291 258 246 257 264
150 156 169 178 167 165 158 148 146 143 139 134 133 131 125 124 124 128 132 135 140 143 146 148 146 144 135 332 341 349 352 347 340 343 353 329 320 314 322 279 221 254 274
153 163 165 179 168 165 165 154 151 151 147 142 141 137 133 132 130 136 139 147 152 154 158 157 152 137 332 329 340 342 335 329 332 346 339 315 318 319 331 320 233 290 298
160 154 164 174 170 162 167 160 158 157 157 150 148 146 143 140 138 144 151 161 161 166 158 162 167 342 328 328 324 320 310 314 327 316 312 319 323 319 323 298 355 330 347
153 156 161 172 167 165 166 166 165 161 160 156 157 153 149 144 146 155 161 172 176 174 164 182 266 322 307 302 304 308 307 326 315 324 323 310 309 325 42 31 14 8 18
160 153 164 172 165 167 167 169 168 163 163 160 160 158 154 151 160 167 171 179 186 182 200 243 281 283 293 305 321 318 308 316 310 300 303 315 347 55 52 39 45 38 32
158 156 165 170 172 168 170 172 170 165 164 163 161 163 158 159 169 174 179 188 188 200 220 267 283 296 313 321 314 309 312 321 319 317 323 24 56 67 58 44 37 40 37
160 161 162 168 170 171 170 175 170 166 164 163 164 164 164 168 173 183 181 201 209 233 248 288 300 307 311 309 313 314 320 338 347 354 56 83 78 64 57 52 51 42 48
165 173 170 167 167 164 172 178 174 171 167 165 168 167 169 163 174 183 185 215 238 259 312 315 300 299 302 321 323 337 15 31 34 65 71 82 78 67 70 62 57 49 42
170 178 177 177 168 161 167 174 162 166 161 155 158 167 164 159 156 188 193 237 257 278 324 301 302 316 320 347 20 16 19 55 76 74 72 67 70 71 70 68 61 52 43
168 171 184 179 170 165 163 151 147 133 149 160 159 163 172 141 153 208 155 256 280 287 291 307 336 19 38 46 49 31 39 66 68 65 77 76 76 72 75 73 59 47 42
175 177 182 179 171 177 159 161 157 149 152 153 170 164 161 152 171 212 184 236 239 257 257 304 38 23 60 43 36 42 65 80 81 81 85 78 74 76 76 67 54 41 44
174 178 185 177 175 168 162 157 155 147 164 159 168 171 170 169 183 224 192 215 236 250 194 129 67 55 50 43 22 49 82 99 100 97 89 87 83 78 74 59 50 35 40
178 180 179 179 174 162 158 162 159 143 152 158 168 179 193 188 199 218 158 105 158 123 129 110 111 77 53 45 44 61 89 98 109 108 94 86 90 80 66 61 45 35 30
185 169 177 173 165 167 159 158 159 161 156 165 184 185 190 190 211 159 135 140 150 121 118 115 75 58 51 49 61 78 91 105 118 102 94 69 58 76 67 57 48 38 25
219 168 167 170 168 167 159 163 159 152 148 178 187 175 184 175 156 142 129 128 122 117 138 85 65 62 53 52 69 67 66 63 60 70 71 68 62 51 38 65 51 37 20
194 178 169 170 169 166 151 155 149 155 169 181 166 162 167 152 152 128 126 121 130 121 81 77 56 82 49 62 90 61 45 40 32 60 67 70 78 62 41 56 48 29 21
209 181 168 167 167 162 154 140 140 151 154 150 151 145 142 134 126 117 108 104 100 93 71 74 83 47 77 87 94 69 47 40 32 48 69 73 85 57 69 70 32 351 21
191 178 169 178 174 158 160 154 132 135 116 95 103 110 123 110 115 110 109 101 99 85 81 109 101 75 50 39 97 74 37 27 40 34 56 60 45 54 85 84 19 4 339
177 181 171 172 160 170 167 151 131 130 96 102 108 99 108 108 112 112 119 121 101 93 84 99 102 108 73 13 120 88 109 345 8 18 38 50 30 37 57 21 350 344 334
184 179 179 174 161 173 150 122 105 99 96 92 92 88 73 95 97 108 104 107 95 96 99 86 125 116 122 21 60 135 101 196 146 326 3 40 16 33 349 345 346 349 341
190 199 173 170 121 152 153 145 146 145 136 107 115 103 85 75 94 96 101 99 95 98 93 95 91 100 116 132 66 31 58 135 150 304 327 347 352 24 9 347 356 348 342
181 199 178 169 115 100 338 151 138 124 115 117 107 100 94 84 86 98 104 97 104 101 98 101 89 92 108 107 98 99 52 53 55 124 246 322 356 345 333 10 344 344 332
179 178 190 160 115 102 53 208 143 136 134 127 127 120 109 102 96 101 98 93 105 102 101 93 95 89 85 83 87 77 107 129 241 85 80 288 243 297 328 24 360 336 325